sat.trackr.live / text

‹ back to catalog

STARLINK-31844

NORAD 60583 · 2024-150A

PAYLOAD ACTIVE UNKNOWN

§ Identity

Operator
Country
US
Launch date
2024-08-20
Launch site
AFETR
Launch vehicle
Mass (kg)
RCS (m²)

Purposes: comms

External: N2YO · Heavens-Above · Gunter

§ Orbital elements

Epoch: 2026-09-21T20:45:21.535776Z

Period
94.01 min
Inclination
53.1591°
Eccentricity
0.0001231
Mean motion
15.31706113 rev/d
Perigee alt
469.9 km
Apogee alt
471.6 km
Semi-major
6,848.9 km
B*
3.5839e-5
RAAN
113.9042°
Arg perigee
90.4110°
Mean anomaly
269.7033°
Rev number
11,810

§ Raw data

STARLINK-318441 60583U 24150A   26264.86483259  .00000747  00000+0  35839-4 0  99982 60583  53.1591 113.9042 0001231  90.4110 269.7033 15.31706113118109

JSON: /api/v1/satellites/60583 · /tle

For live sub-satellite position, see the globe view (requires WebGL).

§ Visibility from observer

Set your observer location to see the next 7 days of passes ≥ 10°. The values pass through the URL so the page stays shareable.

No JS? Fill the form by hand. The geolocation button needs JavaScript.